Regional Weather Roundup
Issued by NWS Northern Indiana

Home | Current Version | Previous Version | Text Only | Print | Product List | Glossary Off
Versions: 1 2 3 4 5 6 7 8 9 10 11 12 13 14 15 16 17 18 19 20 21 22 23 24 25 26 27 28 29 30 31 32 33 34 35 36 37 38 39 40 41 42 43 44 45 46 47 48 49 50

000
ASUS43 KIWX 291710
RWRIWX

KIWX WEATHER ROUNDUP
NATIONAL WEATHER SERVICE NORTHERN INDIANA
100 PM EDT WED MAR 29 2017

NOTE: "FAIR" INDICATES FEW OR NO CLOUDS BELOW 12,000 FEET WITH NO
SIGNIFICANT WEATHER AND/OR OBSTRUCTIONS TO VISIBILITY.

* THESE STATIONS ARE NOT UNDER NWS QUALITY CONTROL. THEY ALSO MAY NOT
  REPORT WEATHER SUCH AS PRECIPITATION OR FOG.

INZ001>027-291800-
NORTHERN INDIANA

CITY           SKY/WX    TMP DP  RH WIND       PRES   REMARKS
GARY*          PTSUNNY   46  37  71 NE10      30.24S
VALPARAISO     PTSUNNY   56  38  50 E16       30.23S
MICHIGAN CITY* PTSUNNY   52  34  50 E7        30.24S
LAPORTE*       MOSUNNY   52  37  55 E13G21    30.24S
KNOX*          CLOUDY    54  10  17 E18       30.22S
SOUTH BEND     MOSUNNY   52  33  48 E16G24    30.24F
ELKHART*       MOSUNNY   54  36  50 E12       30.24F
GOSHEN         SUNNY     53  35  50 E17       30.24F
MONTICELLO*    SUNNY     52  37  54 E17       30.19F
LOGANSPORT*    SUNNY     52  37  58 E17G24    30.21S
ROCHESTER*     SUNNY     57  36  44 E18G24    30.22F
WARSAW*        SUNNY     54  36  50 E17G25    30.23F
ANGOLA*        SUNNY     50  37  62 E9        30.26S
FORT WAYNE     MOSUNNY   52  39  61 E15       30.24F
HUNTINGTON*    SUNNY     51  37  60 E14G20    30.22F
PERU/GRISSOM   SUNNY     51  37  60 E15       30.18F
MARION*        SUNNY     50  39  66 E15G21    30.20F

$$
INZ028>050-291800-
CENTRAL INDIANA

CITY           SKY/WX    TMP DP  RH WIND       PRES   REMARKS
LAFAYETTE      SUNNY     53  37  54 E21G26    30.18S
KOKOMO*        SUNNY     50  42  74 E16       30.20F
MUNCIE*        SUNNY     51  41  68 E15       30.20F
INDIANAPOLIS   MOSUNNY   54  41  61 E16       30.17F

$$
MIZ043>046-050>051-056>058-064>065-071>073-077>080-291800-
SOUTHWEST LOWER MICHIGAN

CITY           SKY/WX    TMP DP  RH WIND       PRES   REMARKS
BATTLE CREEK   SUNNY     53  33  46 NE9       30.27F
BENTON HARBOR  PTSUNNY   54  33  45 E15       30.25F
COLDWATER*     SUNNY     53  31  42 E12G17    30.26S
HILLSDALE*     SUNNY     50  32  50 E12       30.26S
HOLLAND        MOSUNNY   51  33  50 E13       30.29F
GRAND RAPIDS   CLOUDY    50  35  56 E8        30.28F
KALAMAZOO      SUNNY     54  31  41 E12G17    30.27F
STURGIS*       CLOUDY    54  33  46 E13G22    30.24F
THREE RIVERS*  FAIR      53  34  49 NE9       30.27S

$$
OHZ001>008-015>018-024>025-291800-
NORTHWEST OHIO

CITY           SKY/WX    TMP DP  RH WIND       PRES   REMARKS
WAUSEON*       FAIR      54  36  50 E12G17    30.26S
DEFIANCE       CLOUDY    50  37  61 E13       30.27R
FINDLAY        MOSUNNY   51  37  58 E10G22    30.24F
TOLEDO EXPRESS SUNNY     51  32  48 E12G20    30.27S
TOLEDO METCALF SUNNY     52  38  58 E8G18     30.28F
LIMA           SUNNY     52  41  66 NE14      30.24R

$$
AND FOR LAKE MICHIGAN COASTAL AND OPEN LAKE BUOY OBSERVATIONS

STATION/POSITION TEMP    WIND        PRES    VSBY  WAVE
                 AIR SEA DIR/SP/G                  HT/PER
                 (F)     (DEG/KT/KT) (MB)    (MI)  (FT/S)
CALUMET HARBOR    40      20/ 14/ 18 1023.3F
MICHIGAN CITY     43      10/ 12/ 13   N/A
BURNS HARBOR      40      30/ 10/ 15 1024.4R

$$
&&




USA.gov is the U.S. government's official web portal to all federal, state and local government web resources and services.